Location: �chenoz-la-M�line
(47.6009°N, 6.1354°E)
Time: 12:59:40
(UTC+00:00)

Cosmos 2208 Rocket - Pass Details

Date: 27 January 2021
Orbit: 755 x 805 km, 74.0° (Epoch: 02 March)

Event Time Altitude Azimuth Distance (km) Brightness Sun altitude
Exits shadow 05:23:26 22° 240° (WSW) 1,690 5.3 -17.6°
Maximum altitude 05:26:32 43° 300° (WNW) 1,118 4.4 -17.1°
Drops below altitude 10° 05:31:40 10° 12° (NNE) 2,371 6.6 -16.2°
Sets 05:34:11 0° 19° (NNE) 3,297 7.4 -15.8°
